Location: Antoniew
(51.9153°N, 19.0405°E)
Time: 05:28:10
(UTC+02:00)

ISS - Visible Passes

Search period start: 26 September 2018 00:00
Search period end: 06 October 2018 00:00
Orbit: 403 x 408 km, 51.6° (Epoch: 26 September)

Date Brightness Start Highest point End Pass type
(mag) Time Alt. Az. Time Alt. Az. Time Alt. Az.
26 Sep -3.6 20:12:35 10° WSW 20:15:49 54° SSE 20:16:23 46° ESE visible
26 Sep -0.5 21:48:56 10° W 21:49:04 11° W 21:49:04 11° W visible
27 Sep -3.1 19:20:53 10° SW 19:23:59 39° SSE 19:26:35 13° E visible
27 Sep -2.6 20:57:01 10° W 20:59:16 40° W 20:59:16 40° W visible
28 Sep -3.9 20:05:07 10° WSW 20:08:25 75° S 20:09:23 42° E visible
28 Sep -0.7 21:41:36 10° W 21:42:03 13° W 21:42:03 13° W visible
29 Sep -3.6 19:13:15 10° WSW 19:16:32 60° SSE 19:19:26 12° E visible
29 Sep -2.8 20:49:40 10° W 20:52:07 46° W 20:52:07 46° W visible
30 Sep -3.9 19:57:43 10° W 20:01:02 87° S 20:02:08 39° E visible
30 Sep -0.7 21:34:14 10° W 21:34:48 14° W 21:34:48 14° W visible
01 Oct -3.8 19:05:46 10° WSW 19:09:05 80° S 19:12:07 12° E visible
01 Oct -2.9 20:42:16 10° W 20:44:47 48° W 20:44:47 48° W visible
02 Oct -3.9 19:50:18 10° W 19:53:37 85° S 19:54:46 38° E visible
02 Oct -0.7 21:26:51 10° W 21:27:26 14° W 21:27:26 14° W visible
03 Oct -3.8 18:58:18 10° W 19:01:38 88° S 19:04:44 11° E visible
03 Oct -2.9 20:34:49 10° W 20:37:24 44° WSW 20:37:24 44° WSW visible
04 Oct -3.8 19:42:49 10° W 19:46:07 71° SSW 19:47:23 34° ESE visible
04 Oct -0.7 21:19:32 10° W 21:20:03 13° W 21:20:03 13° W visible
05 Oct -3.8 18:50:49 10° W 18:54:07 82° S 18:57:23 10° E visible
05 Oct -2.5 20:27:22 10° W 20:30:03 34° SW 20:30:03 34° SW visible
